Regional Weather Roundup
Issued by NWS Upton, NY

Current Version | Previous Version | Graphics & Text | Print | Product List | Glossary Off
Versions: 1 2 3 4 5 6 7 8 9 10 11 12 13 14 15 16 17 18 19 20 21 22 23 24 25 26 27 28 29 30 31 32 33 34 35 36 37 38 39 40 41 42 43 44 45 46 47 48 49 50

453
ASUS41 KOKX 231609
RWROKX

REGIONAL WEATHER ROUNDUP
NATIONAL WEATHER SERVICE NEW YORK NY
1200 PM EDT SAT SEP 23 2017

NOTE: "FAIR" INDICATES FEW OR NO CLOUDS BELOW 12,000 FEET WITH NO
SIGNIFICANT WEATHER AND/OR OBSTRUCTIONS TO VISIBILITY.

NYZ071-072-176-178-NJZ106-104-231700-
NEW YORK CITY METRO AREA

CITY           SKY/WX    TMP DP  RH WIND       PRES   REMARKS
Central Park   SUNNY     81  57  43 VRB7      30.08S
Bronx Bot Gard   N/A     79  54  41 NE6       30.09S
LaGuardia APRT MOSUNNY   80  57  45 N15G22    30.04F
Kennedy INTL   MOSUNNY   81  60  48 N18       30.05F
Breezy Point   NOT AVBL
Newark/Liberty MOSUNNY   84  55  36 N13G21    30.05S
Teterboro      SUNNY     83  57  41 N13       30.04S
$$

NYZ177-179-078>081-231700-
LONG ISLAND NEW YORK

CITY           SKY/WX    TMP DP  RH WIND       PRES   REMARKS
Jones Beach    NOT AVBL
Matinecock PT  NOT AVBL
Farmingdale    MOSUNNY   80  63  55 N13       30.03F
MacArthur/ISP  MOSUNNY   80  63  55 N17G23    30.02S
Shirley        SUNNY     80  62  54 N17G24    30.03S
Mt Sinai Harb  NOT AVBL
Westhampton    SUNNY     77  58  51 N16G24    30.03S
East Hampton   FAIR      75  62  64 N12G18    30.01R
Montauk          N/A     74  65  73 N8        30.01R
$$

NYZ052-065-067-231700-
HUDSON VALLEY

CITY           SKY/WX    TMP DP  RH WIND       PRES   REMARKS
White Plains   SUNNY     81  57  43 N13       30.05F
Larchmont Harb NOT AVBL
Croton On Huds NOT AVBL
Newburgh       SUNNY     79  57  47 NE7       30.10F
Montgomery     SUNNY     78  59  51 N5        30.07F
Poughkeepsie   SUNNY     77  55  46 W7        30.06F
Albany         MOSUNNY   76  57  51 N8        30.09F
$$

NJZ001-105-106-008-010-013-015-019>022-104-231700-
NEW JERSEY

CITY           SKY/WX    TMP DP  RH WIND       PRES   REMARKS
Newark/Liberty MOSUNNY   84  55  36 N13G21    30.05S
Teterboro      SUNNY     83  57  41 N13       30.04S
Caldwell       SUNNY     82  59  45 NE8       30.06F
Somerville     NOT AVBL
Linden         FAIR      82  53  36 N9        30.05F
Perth Amboy    NOT AVBL
Sussex         SUNNY     80  60  50 CALM      30.08F
Andover          N/A     79  59  50 CALM      30.09F
Trenton        SUNNY     82  59  45 N12       30.05F
Millville      SUNNY     84  65  52 N9        30.05S
Atlantic City  SUNNY     82  65  56 N9G17     30.04R
Wrightstown    SUNNY     80  63  54 N10       30.02F
Toms River     SUNNY     81  64  56 N12G18    30.05S
Belmar         SUNNY     81  62  52 N13       30.06S
$$

PAZ047>061-062-071-231700-
EASTERN PENNSYLVANIA

CITY           SKY/WX    TMP DP  RH WIND       PRES   REMARKS
Philadelphia   MOSUNNY   83  60  45 N13       30.06F
Allentown      SUNNY     82  62  50 NW9       30.09F
Scranton       SUNNY     74  59  59 VRB3      30.14F
$$

CTZ002-004>006-009-010-012-RIZ004-006-007-MAZ004-011-015-231700-
SOUTHERN NEW ENGLAND
 IN CT

CITY           SKY/WX    TMP DP  RH WIND       PRES   REMARKS
Bradley INTL   MOSUNNY   79  57  46 NE12      30.04F
Hartford       SUNNY     78  59  51 NW9       30.03F
Danbury        SUNNY     80  58  46 VRB7      30.07F
Wtrbury/Oxford SUNNY     78  62  57 NE10      30.06F
Norwalk Harbor   N/A     75 N/A N/A N13         N/A
Bridgeport     SUNNY     81  63  54 NE10      30.02F
Meriden        SUNNY     79  60  52 N8        30.03F
New Haven      SUNNY     81  61  50 N15       30.03S
Chester        FAIR      81  63  54 N8        30.04R
Groton         SUNNY     78  62  57 N14G29    29.99F
Wilimantic     MOSUNNY   78  64  61 NE13      30.02F

 IN RI

CITY           SKY/WX    TMP DP  RH WIND       PRES   REMARKS
Providence     CLOUDY    73  64  73 N13       30.03S
Block Island   MOSUNNY   70  64  81 NE12G23   30.00R
Westerly       SUNNY     77  65  66 N12G21    30.00F
 IN MA

CITY           SKY/WX    TMP DP  RH WIND       PRES   REMARKS
Boston         MOSUNNY   72  60  66 NE9       30.02F
Worcester      SUNNY     74  59  59 NE7       30.06F
Westfield      SUNNY     80  53  39 N7        30.04F
Provincetown   CLOUDY    61  60  97 N12       30.02R FOG
Nantucket      LGT RAIN  62  62 100 N20       29.96R VSB 1/2
$$

ANZ330-335-338-340-345-350-353-355-231700-
COASTAL MARINE OBSERVATIONS


STATION/POSITION TIME  SKY/WX   TEMP    WIND        PRES    VSBY  WAVE
                                AIR SEA DIR/SP/G                  HT/PER
                 (UTC)          (F)     (DEG/KT/KT) (MB)    (MI)  (FT/S)
NY HARB ENTRANCE 1450            72 70  340/  8/ 10 1016.2          4/ 9
20 S FIRE ISLAND 1450            69 66  340/ 12/ 14 1016.4          5/ 9
GREAT SOUTH BAY  1515            74 69  360/ 14/ 17   N/A
23 SSW MONTAUK P 1450            66 62              1015.5          6/ 7
15 E BARNEGAT LI 1530               69                N/A           5/10
HUDSON CANYON    1450            67 68   10/ 19/ 23 1014.3          7/ 8
KINGS POINT      1524            74 71   40/  6/  8 1018.3
EXECUTION ROCKS  1545            76      10/  8/ 10   N/A
WESTERN LI SOUND NOT AVBL
CENTRAL LI SOUND 1530            72     360/ 12/ 16   N/A           2
EASTERN LI SOUND NOT AVBL
ROBBINS REEF     1548            77     350/ 11/ 12 1018.2
$$


>>>>>>>>>>>>>>>>>>>>>>>>>>>> KEY <<<<<<<<<<<<<<<<<<<<<<<<<<<
>                                                          <
>     SKY/WX - Sky Condition/Present Weather               <
>     TMP    - Temperature in Fahrenheit                   <
>     DP     - Dew Point in Fahrenheit                     <
>     RH     - Relative Humidity in Percent                <
>     WIND   - Direction (from) and Speed in MPH           <
>     PRES   - Mean Sea Level Pressure (inches of Hg)      <
>     WCI    - Wind Chill Index                            <
>     VSB    - VISIBILITY IN MILES                         <
>     HX     - HEAT INDEX                                  <
>     TC     - TEMPERATURE IN CELSIUS                      <
>     VRB    - VARIABLE WIND DIRECTION                     <
>                                                          <
>>>>>>>>>>>>>>>>>>>>>>>>>>>> KEY <<<<<<<<<<<<<<<<<<<<<<<<<<<




USA.gov is the U.S. government's official web portal to all federal, state and local government web resources and services.